Date String (YYYY-MM-DD hh:mm:ss) UTC,Instrument flags,Ambient pressure (hPa),Sample flow (lpm),Bypass flow (lpm),Sample temperature (°C),Ambient temperature (°C),ASC tube jacket temperature (°C),LED temperature (°C),Box temperature (°C),Sample RH (%),Span deviation,Mass concentration (μg/m³),Mass concentration (μg/m³),Mass concentration (μg/m³)
DateTimeUTC,F1_M11,P_M11,Q1_M11,Q2_M11,T1_M11,T2_M11,T3_M11,T4_M11,T5_M11,U1_M11,ZSPAN_M11,X0_M11,X2_M11,X1_M11
2023-02-17 09:00:00,,0827.4,5.03,0.00,22.6,22.5,00.0,31.3,24.5,06.2,0000.0,0003.91,0002.20,0001.64
2023-02-17 09:01:00,,0827.4,4.96,0.00,22.7,23.1,00.0,31.3,24.6,06.3,0000.0,0003.54,0002.14,0001.64
2023-02-17 09:02:00,,0827.5,5.01,0.00,22.7,22.6,00.0,31.3,24.5,06.2,0000.0,0003.62,0002.17,0001.65
2023-02-17 09:03:00,,0827.4,4.95,0.00,22.7,22.1,00.0,31.4,24.4,06.2,0000.0,0004.02,0002.23,0001.67
2023-02-17 09:04:00,,0827.4,5.00,0.00,22.6,21.6,00.0,31.4,24.3,06.2,0000.0,0004.57,0002.25,0001.68
2023-02-17 09:05:00,,0827.5,5.00,0.00,22.6,21.2,00.0,31.4,24.2,06.3,0000.0,0004.54,0002.23,0001.67
2023-02-17 09:06:00,,0827.4,4.99,0.00,22.5,20.9,00.0,31.4,24.2,06.3,0000.0,0004.64,0002.24,0001.65
2023-02-17 09:07:00,,0827.4,5.00,0.00,22.5,20.6,00.0,31.4,24.1,06.3,0000.0,0004.65,0002.20,0001.65
2023-02-17 09:08:00,,0827.4,4.97,0.00,22.5,20.4,00.0,31.4,24.0,06.4,0000.0,0004.73,0002.21,0001.63
2023-02-17 09:09:00,,0827.4,4.99,0.00,22.4,20.5,00.0,31.4,23.9,06.4,0000.0,0004.68,0002.19,0001.61
2023-02-17 09:10:00,,0827.4,5.02,0.00,22.5,21.6,00.0,31.3,24.2,06.3,0000.0,0004.51,0002.17,0001.61
2023-02-17 09:11:00,,0827.4,5.01,0.00,22.6,22.8,00.0,31.3,24.5,06.2,0000.0,0004.23,0002.15,0001.61
2023-02-17 09:12:00,,0827.4,4.99,0.00,22.7,22.9,00.0,31.3,24.6,06.2,0000.0,0004.27,0002.18,0001.62
2023-02-17 09:13:00,,0827.4,5.01,0.00,22.7,22.4,00.0,31.4,24.5,06.2,0000.0,0004.23,0002.18,0001.63
2023-02-17 09:14:00,,0827.4,5.00,0.00,22.7,21.8,00.0,31.4,24.4,06.2,0000.0,0004.12,0002.16,0001.63
2023-02-17 09:15:00,,0827.4,5.02,0.00,22.6,21.3,00.0,31.4,24.3,06.2,0000.0,0003.49,0002.16,0001.63
2023-02-17 09:16:00,,0827.4,4.99,0.00,22.6,21.1,00.0,31.4,24.2,06.2,0000.0,0003.64,0002.26,0001.65
2023-02-17 09:17:00,,0827.4,5.03,0.00,22.5,20.8,00.0,31.4,24.1,06.2,0000.0,0003.63,0002.28,0001.67
2023-02-17 09:18:00,,0827.4,4.99,0.00,22.5,20.7,00.0,31.4,24.1,06.3,0000.0,0003.59,0002.30,0001.67
2023-02-17 09:19:00,,0827.4,5.00,0.00,22.4,20.5,00.0,31.4,24.0,06.3,0000.0,0003.49,0002.26,0001.67
2023-02-17 09:20:00,,0827.4,5.01,0.00,22.4,20.5,00.0,31.4,24.0,06.3,0000.0,0003.58,0002.26,0001.67
2023-02-17 09:21:00,,0827.4,5.00,0.00,22.4,21.5,00.0,31.3,24.2,06.2,0000.0,0004.58,0002.30,0001.67
2023-02-17 09:22:00,,0827.4,4.96,0.00,22.6,22.6,00.0,31.3,24.5,06.1,0000.0,0004.76,0002.31,0001.68
2023-02-17 09:23:00,,0827.4,4.96,0.00,22.7,23.1,00.0,31.3,24.7,06.1,0000.0,0004.90,0002.32,0001.71
2023-02-17 09:24:00,,0827.4,4.99,0.00,22.7,22.6,00.0,31.3,24.5,06.1,0000.0,0004.94,0002.33,0001.71
2023-02-17 09:25:00,,0827.4,4.99,0.00,22.7,22.0,00.0,31.4,24.4,06.1,0000.0,0005.80,0002.37,0001.72
2023-02-17 09:26:00,,0827.4,4.97,0.00,22.6,21.6,00.0,31.4,24.3,06.1,0000.0,0006.67,0002.38,0001.73
2023-02-17 09:27:00,,0827.4,5.02,0.00,22.6,21.2,00.0,31.4,24.2,06.1,0000.0,0006.53,0002.30,0001.72
2023-02-17 09:28:00,,0827.4,5.01,0.00,22.6,20.9,00.0,31.4,24.2,06.1,0000.0,0006.58,0002.30,0001.73
2023-02-17 09:29:00,,0827.4,5.01,0.00,22.5,20.8,00.0,31.4,24.1,06.1,0000.0,0006.54,0002.29,0001.74
2023-02-17 09:30:00,,0827.4,4.99,0.00,22.5,20.6,00.0,31.4,24.1,06.1,0000.0,0006.71,0002.35,0001.76
2023-02-17 09:31:00,,0827.4,5.04,0.00,22.4,20.5,00.0,31.4,24.0,06.1,0000.0,0006.78,0002.38,0001.79
2023-02-17 09:32:00,,0827.4,5.01,0.00,22.5,21.3,00.0,31.3,24.2,06.1,0000.0,0005.72,0002.33,0001.79
2023-02-17 09:33:00,,0827.4,5.00,0.00,22.6,22.4,00.0,31.3,24.4,06.1,0000.0,0005.48,0002.32,0001.78
2023-02-17 09:34:00,,0827.4,5.03,0.00,22.7,23.1,00.0,31.3,24.6,06.1,0000.0,0005.32,0002.33,0001.78
2023-02-17 09:35:00,,0827.4,4.99,0.00,22.7,22.7,00.0,31.4,24.6,06.0,0000.0,0005.52,0002.35,0001.79
2023-02-17 09:36:00,,0827.5,4.97,0.00,22.7,22.2,00.0,31.4,24.5,06.0,0000.0,0005.22,0002.36,0001.80
2023-02-17 09:37:00,,0827.6,4.98,0.00,22.7,21.7,00.0,31.4,24.4,06.0,0000.0,0003.84,0002.35,0001.81
2023-02-17 09:38:00,,0827.6,4.98,0.00,22.6,21.3,00.0,31.4,24.3,06.2,0000.0,0003.84,0002.35,0001.79
2023-02-17 09:39:00,,0827.5,5.01,0.00,22.6,20.9,00.0,31.4,24.1,06.2,0000.0,0003.70,0002.31,0001.78
2023-02-17 09:40:00,,0827.6,4.99,0.00,22.5,20.7,00.0,31.4,24.1,06.2,0000.0,0003.67,0002.29,0001.76
2023-02-17 09:41:00,,0827.5,5.00,0.00,22.5,20.5,00.0,31.4,24.0,06.2,0000.0,0003.69,0002.28,0001.77
2023-02-17 09:42:00,,0827.4,5.00,0.00,22.4,20.3,00.0,31.4,23.9,06.2,0000.0,0003.67,0002.27,0001.76
2023-02-17 09:43:00,,0827.4,5.02,0.00,22.4,20.9,00.0,31.3,24.0,06.2,0000.0,0003.74,0002.30,0001.77
2023-02-17 09:44:00,,0827.4,4.99,0.00,22.5,22.1,00.0,31.3,24.3,06.2,0000.0,0003.70,0002.29,0001.78
2023-02-17 09:45:00,,0827.4,4.96,0.00,22.6,23.1,00.0,31.3,24.6,06.1,0000.0,0003.69,0002.30,0001.77
2023-02-17 09:46:00,,0827.4,5.01,0.00,22.7,22.8,00.0,31.3,24.6,06.1,0000.0,0003.57,0002.27,0001.76
2023-02-17 09:47:00,,0827.4,4.98,0.00,22.7,22.1,00.0,31.4,24.4,06.1,0000.0,0003.63,0002.27,0001.76
2023-02-17 09:48:00,,0827.4,4.99,0.00,22.6,21.6,00.0,31.4,24.3,06.1,0000.0,0003.50,0002.24,0001.76
2023-02-17 09:49:00,,0827.4,5.00,0.00,22.6,21.3,00.0,31.4,24.3,06.1,0000.0,0003.61,0002.28,0001.78
2023-02-17 09:50:00,,0827.4,5.01,0.00,22.6,21.1,00.0,31.4,24.2,06.1,0000.0,0003.70,0002.32,0001.79
2023-02-17 09:51:00,,0827.4,5.03,0.00,22.5,20.9,00.0,31.4,24.2,06.1,0000.0,0003.72,0002.36,0001.82
2023-02-17 09:52:00,,0827.4,5.00,0.00,22.5,20.7,00.0,31.4,24.1,06.2,0000.0,0003.62,0002.35,0001.81
2023-02-17 09:53:00,,0827.3,4.98,0.00,22.4,20.4,00.0,31.4,24.0,06.1,0000.0,0003.60,0002.35,0001.82
2023-02-17 09:54:00,,0827.3,5.01,0.00,22.4,20.4,00.0,31.4,23.9,06.1,0000.0,0003.73,0002.39,0001.81
2023-02-17 09:55:00,,0827.3,5.01,0.00,22.4,21.3,00.0,31.3,24.1,06.1,0000.0,0003.86,0002.42,0001.82
2023-02-17 09:56:00,,0827.4,5.00,0.00,22.5,22.4,00.0,31.3,24.4,06.1,0000.0,0003.83,0002.42,0001.83
2023-02-17 09:57:00,,0827.4,4.96,0.00,22.7,23.1,00.0,31.3,24.6,06.1,0000.0,0004.75,0002.44,0001.84
2023-02-17 09:58:00,,0827.3,5.02,0.00,22.7,22.6,00.0,31.4,24.5,06.1,0000.0,0004.93,0002.43,0001.83
2023-02-17 09:59:00,,0827.3,5.00,0.00,22.7,22.2,00.0,31.4,24.4,06.1,0000.0,0004.96,0002.44,0001.83
